FW3594 Weather Reports


Display with metric or nautical units.
time (UTC)temp
F
wind
direction
speed
MPH
gust
MPH
rain 1hr
in
rain 24hr
in
rain mn
in
humidity
%
barometer
mb
20260504130143 56 1 1.0 5.0 0.00 0.00 0.00 75 1010.0
20260504120122 57 345 2.0 4.0 0.00 0.00 0.00 70 1010.2
20260504110122 57 353 3.0 5.0 0.00 0.00 0.00 69 1010.0
20260504100122 57 344 2.0 4.0 0.00 0.00 0.00 71 1009.9
20260504090122 58 350 2.0 4.0 0.00 0.00 0.00 69 1009.8
20260504081122 60 344 3.0 6.0 0.00 0.00 0.00 63 1009.5
20260504080122 60 354 2.0 4.0 0.00 0.00 0.00 63 1009.5
20260504070122 61 345 2.0 3.0 0.00 0.00 0.00 62 1009.4
20260504060122 62 342 2.0 5.0 0.00 0.00 0.00 60 1009.4
20260504050122 65 340 2.0 5.0 0.00 0.00 0.00 54 1009.2
20260504045143 65 341 3.0 5.0 0.00 0.00 0.00 53 1009.3
20260504044122 66 338 0.0 0.0 0.00 0.00 0.00 51 1009.2
20260504043122 66 349 0.0 3.0 0.00 0.00 0.00 49 1009.2
20260504042122 67 345 0.0 3.0 0.00 0.00 0.00 48 1009.3
20260504041122 67 360 0.0 0.0 0.00 0.00 0.00 47 1009.3
20260504040122 69 90 0.0 0.0 0.00 0.00 0.00 45 1009.2
20260504035122 70 113 0.0 0.0 0.00 0.00 0.00 42 1009.2
20260504034122 71 23 0.0 0.0 0.00 0.00 0.00 40 1009.3
20260504033122 72 23 0.0 0.0 0.00 0.00 0.00 38 1009.3
20260504032122 73 113 0.0 0.0 0.00 0.00 0.00 36 1009.3
20260504031143 74 307 0.0 3.0 0.00 0.00 0.00 33 1009.4
20260504030122 75 16 0.0 3.0 0.00 0.00 0.00 31 1009.4
20260504025143 76 306 2.0 6.0 0.00 0.00 0.00 30 1009.5
20260504024143 78 315 2.0 6.0 0.00 0.00 0.00 28 1009.5
20260504023122 79 285 3.0 9.0 0.00 0.00 0.00 27 1009.5
20260504022143 81 270 2.0 13.0 0.00 0.00 0.00 26 1009.5
20260504021144 82 296 3.0 8.0 0.00 0.00 0.00 26 1009.5
20260504020122 81 288 3.0 9.0 0.00 0.00 0.00 27 1009.7
20260504015122 82 302 3.0 8.0 0.00 0.00 0.00 27 1009.9
20260504014122 82 275 3.0 7.0 0.00 0.00 0.00 26 1010.0
20260504013143 82 248 3.0 11.0 0.00 0.00 0.00 26 1010.0
20260504012122 82 312 3.0 8.0 0.00 0.00 0.00 27 1010.0
20260504011122 83 348 3.0 7.0 0.00 0.00 0.00 27 1010.2
20260504010143 84 284 4.0 13.0 0.00 0.00 0.00 27 1010.4
20260504005123 84 236 4.0 10.0 0.00 0.00 0.00 28 1010.5
20260504004122 82 246 4.0 10.0 0.00 0.00 0.00 28 1010.7
20260504003122 83 235 4.0 15.0 0.00 0.00 0.00 27 1010.7
20260504002122 84 230 3.0 8.0 0.00 0.00 0.00 27 1010.8
20260504001143 83 274 4.0 9.0 0.00 0.00 0.00 27 1011.0
20260504000122 83 267 4.0 12.0 0.00 0.00 0.00 27 1011.0
20260503235122 82 212 4.0 13.0 0.00 0.00 0.00 29 1011.2
20260503234122 82 220 5.0 13.0 0.00 0.00 0.00 28 1011.3
20260503233122 83 239 4.0 13.0 0.00 0.00 0.00 28 1011.3
20260503232122 83 278 4.0 12.0 0.00 0.00 0.00 28 1011.5
20260503231122 82 227 6.0 17.0 0.00 0.00 0.00 29 1011.7
20260503230143 83 238 4.0 14.0 0.00 0.00 0.00 30 1011.8
20260503225143 83 261 3.0 9.0 0.00 0.00 0.00 30 1012.0
20260503224122 80 250 4.0 13.0 0.00 0.00 0.00 31 1012.2
20260503223122 82 260 4.0 10.0 0.00 0.00 0.00 30 1012.2
20260503222123 83 227 4.0 11.0 0.00 0.00 0.00 28 1012.3
20260503221122 80 188 4.0 9.0 0.00 0.00 0.00 33 1012.5
20260503220143 79 176 5.0 13.0 0.00 0.00 0.00 36 1012.5
20260503215122 77 158 5.0 10.0 0.00 0.00 0.00 42 1012.8
20260503214122 77 194 5.0 11.0 0.00 0.00 0.00 39 1013.0
20260503213122 78 220 5.0 13.0 0.00 0.00 0.00 33 1013.0
20260503212122 78 221 5.0 16.0 0.00 0.00 0.00 36 1013.0
20260503211122 77 209 5.0 13.0 0.00 0.00 0.00 37 1013.2
20260503210122 76 195 5.0 11.0 0.00 0.00 0.00 45 1013.4
20260503205122 74 171 5.0 12.0 0.00 0.00 0.00 47 1013.5
20260503204122 74 183 5.0 10.0 0.00 0.00 0.00 47 1013.5
20260503203143 75 191 5.0 13.0 0.00 0.00 0.00 47 1013.5
20260503202122 76 209 5.0 13.0 0.00 0.00 0.00 38 1013.8
20260503201122 74 194 6.0 17.0 0.00 0.00 0.00 45 1014.0
20260503200122 74 192 5.0 12.0 0.00 0.00 0.00 45 1014.0
20260503195122 77 205 5.0 13.0 0.00 0.00 0.00 39 1014.2
20260503194122 74 172 5.0 13.0 0.00 0.00 0.00 46 1014.4
20260503193122 74 177 5.0 13.0 0.00 0.00 0.00 46 1014.4
20260503192144 72 175 5.0 10.0 0.00 0.00 0.00 49 1014.4
20260503191144 74 202 4.0 9.0 0.00 0.00 0.00 46 1014.5
20260503190144 75 221 4.0 12.0 0.00 0.00 0.00 43 1014.7
20260503185124 74 228 6.0 13.0 0.00 0.00 0.00 40 1014.8
20260503184123 74 231 5.0 13.0 0.00 0.00 0.00 44 1014.9
20260503183123 74 232 5.0 11.0 0.00 0.00 0.00 47 1014.9
20260503182123 73 226 5.0 12.0 0.00 0.00 0.00 49 1014.9
20260503181123 71 173 4.0 10.0 0.00 0.00 0.00 55 1014.9
20260503180124 69 177 4.0 9.0 0.00 0.00 0.00 60 1015.0
20260503175122 68 194 4.0 8.0 0.00 0.00 0.00 61 1015.0
20260503174122 68 207 4.0 8.0 0.00 0.00 0.00 60 1015.0
20260503173143 67 208 3.0 8.0 0.00 0.00 0.00 63 1015.0
20260503172122 66 216 4.0 8.0 0.00 0.00 0.00 63 1015.0
20260503171122 68 182 3.0 8.0 0.00 0.00 0.00 59 1015.0
20260503170122 67 153 4.0 8.0 0.00 0.00 0.00 59 1015.2
20260503160124 66 174 3.0 6.0 0.00 0.00 0.00 62 1015.5
20260503150124 63 197 0.0 3.0 0.00 0.00 0.00 66 1015.5
20260503140124 54 360 0.0 0.0 0.00 0.00 0.00 84 1015.7